Time,TemperatureF,DewpointF,PressureIn,WindDirection,WindDirectionDegrees,WindSpeedMPH,WindSpeedGustMPH,Humidity,HourlyPrecipIn,Conditions,Clouds,dailyrainin,SoftwareType,DateUTC
2013-08-26 00:11:00,66.0,62.0,-100.00,East,90,4.0,5.0,89,-99.99,,,-99.99,,2013-08-26 07:11:00,
2013-08-26 00:42:00,65.0,62.0,-100.00,SE,135,6.0,7.0,89,-99.99,,,-99.99,,2013-08-26 07:42:00,
2013-08-26 00:52:00,65.0,62.0,-100.00,SE,135,6.0,7.0,89,-99.99,,,-99.99,,2013-08-26 07:52:00,
2013-08-26 01:11:00,65.0,62.0,-100.00,SE,135,4.0,4.0,89,-99.99,,,-99.99,,2013-08-26 08:11:00,
2013-08-26 01:22:00,65.0,62.0,-100.00,SE,135,6.0,7.0,90,-99.99,,,-99.99,,2013-08-26 08:22:00,
2013-08-26 01:42:00,65.0,62.0,-100.00,SE,135,7.0,8.0,90,-99.99,,,-99.99,,2013-08-26 08:42:00,
2013-08-26 01:52:00,65.0,62.0,-100.00,SE,135,7.0,8.0,90,-99.99,,,-99.99,,2013-08-26 08:52:00,
2013-08-26 02:11:00,65.0,62.0,-100.00,SE,135,7.0,8.0,91,-99.99,,,-99.99,,2013-08-26 09:11:00,
2013-08-26 02:21:00,64.0,62.0,-100.00,SE,135,7.0,8.0,91,-99.99,,,-99.99,,2013-08-26 09:21:00,
2013-08-26 02:43:00,64.0,62.0,-100.00,SE,135,6.0,7.0,92,-99.99,,,-99.99,,2013-08-26 09:43:00,
2013-08-26 02:53:00,64.0,62.0,-100.00,SE,135,6.0,7.0,92,-99.99,,,-99.99,,2013-08-26 09:53:00,
2013-08-26 03:12:00,64.0,62.0,-100.00,SE,135,8.0,8.0,93,-99.99,,,-99.99,,2013-08-26 10:12:00,
2013-08-26 03:23:00,64.0,62.0,-100.00,SE,135,8.0,8.0,93,-99.99,,,-99.99,,2013-08-26 10:23:00,
2013-08-26 03:42:00,64.0,62.0,-100.00,SE,135,6.0,6.0,92,-99.99,,,-99.99,,2013-08-26 10:42:00,
2013-08-26 03:52:00,64.0,62.0,-100.00,SE,135,6.0,6.0,92,-99.99,,,-99.99,,2013-08-26 10:52:00,
2013-08-26 04:12:00,64.0,61.0,-100.00,SE,135,5.0,6.0,91,-99.99,,,-99.99,,2013-08-26 11:12:00,
2013-08-26 04:22:00,64.0,61.0,-100.00,South,180,6.0,6.0,90,-99.99,,,-99.99,,2013-08-26 11:22:00,
2013-08-26 04:42:00,64.0,61.0,-100.00,South,180,5.0,6.0,90,-99.99,,,-99.99,,2013-08-26 11:42:00,
2013-08-26 04:52:00,64.0,61.0,-100.00,SE,135,7.0,8.0,92,-99.99,,,-99.99,,2013-08-26 11:52:00,
2013-08-26 05:12:00,63.0,61.0,-100.00,SE,135,8.0,8.0,92,-99.99,,,-99.99,,2013-08-26 12:12:00,
2013-08-26 05:21:00,63.0,61.0,-100.00,SE,135,7.0,8.0,92,-99.99,,,-99.99,,2013-08-26 12:21:00,
2013-08-26 05:42:00,63.0,60.0,-100.00,SE,135,8.0,9.0,91,-99.99,,,-99.99,,2013-08-26 12:42:00,
2013-08-26 05:52:00,63.0,60.0,-100.00,SE,135,8.0,9.0,91,-99.99,,,-99.99,,2013-08-26 12:52:00,
2013-08-26 06:11:00,63.0,60.0,-100.00,SE,135,8.0,9.0,92,-99.99,,,-99.99,,2013-08-26 13:11:00,
2013-08-26 06:21:00,63.0,60.0,-100.00,SE,135,8.0,9.0,92,-99.99,,,-99.99,,2013-08-26 13:21:00,
2013-08-26 06:42:00,63.0,61.0,-100.00,SE,135,8.0,8.0,92,-99.99,,,-99.99,,2013-08-26 13:42:00,
2013-08-26 06:52:00,63.0,60.0,-100.00,SE,135,6.0,7.0,91,-99.99,,,-99.99,,2013-08-26 13:52:00,
2013-08-26 07:11:00,63.0,60.0,-100.00,SE,135,6.0,7.0,91,-99.99,,,-99.99,,2013-08-26 14:11:00,
2013-08-26 07:22:00,63.0,60.0,-100.00,SE,135,6.0,7.0,91,-99.99,,,-99.99,,2013-08-26 14:22:00,
2013-08-26 07:42:00,63.0,60.0,-100.00,SE,135,5.0,6.0,91,-99.99,,,-99.99,,2013-08-26 14:42:00,
2013-08-26 07:52:00,63.0,60.0,-100.00,SE,135,5.0,6.0,91,-99.99,,,-99.99,,2013-08-26 14:52:00,
2013-08-26 08:12:00,63.0,61.0,-100.00,SE,135,6.0,7.0,92,-99.99,,,-99.99,,2013-08-26 15:12:00,
2013-08-26 08:22:00,63.0,61.0,-100.00,SE,135,6.0,7.0,92,-99.99,,,-99.99,,2013-08-26 15:22:00,
2013-08-26 08:47:00,63.0,60.0,-100.00,SE,135,6.0,6.0,90,-99.99,,,-99.99,,2013-08-26 15:47:00,
2013-08-26 08:59:00,63.0,60.0,-100.00,SE,135,6.0,6.0,90,-99.99,,,-99.99,,2013-08-26 15:59:00,
2013-08-26 09:17:00,63.0,60.0,-100.00,SE,135,6.0,8.0,88,-99.99,,,-99.99,,2013-08-26 16:17:00,
2013-08-26 09:29:00,63.0,60.0,-100.00,SE,135,4.0,6.0,88,-99.99,,,-99.99,,2013-08-26 16:29:00,
2013-08-26 09:48:00,63.0,60.0,-100.00,SE,135,4.0,6.0,88,-99.99,,,-99.99,,2013-08-26 16:48:00,
2013-08-26 09:59:00,64.0,60.0,-100.00,South,180,8.0,9.0,86,-99.99,,,-99.99,,2013-08-26 16:59:00,
2013-08-26 10:12:00,65.0,60.0,-100.00,SE,135,5.0,6.0,84,-99.99,,,-99.99,,2013-08-26 17:12:00,
2013-08-26 10:24:00,65.0,60.0,-100.00,East,90,5.0,6.0,85,-99.99,,,-99.99,,2013-08-26 17:24:00,
2013-08-26 10:43:00,66.0,60.0,-100.00,SE,135,4.0,4.0,82,-99.99,,,-99.99,,2013-08-26 17:43:00,
2013-08-26 10:53:00,66.0,60.0,-100.00,SE,135,4.0,4.0,82,-99.99,,,-99.99,,2013-08-26 17:53:00,
2013-08-26 11:12:00,67.0,59.0,-100.00,SE,135,8.0,9.0,78,-99.99,,,-99.99,,2013-08-26 18:12:00,
2013-08-26 11:21:00,68.0,58.0,-100.00,South,180,7.0,9.0,72,-99.99,,,-99.99,,2013-08-26 18:21:00,
2013-08-26 11:42:00,69.0,57.0,-100.00,SW,225,8.0,12.0,66,-99.99,,,-99.99,,2013-08-26 18:42:00,
2013-08-26 11:52:00,69.0,57.0,-100.00,SW,225,8.0,12.0,66,-99.99,,,-99.99,,2013-08-26 18:52:00,
2013-08-26 12:11:00,70.0,56.0,-100.00,South,180,9.0,13.0,62,-99.99,,,-99.99,,2013-08-26 19:11:00,
2013-08-26 12:22:00,70.0,56.0,-100.00,South,180,11.0,12.0,62,-99.99,,,-99.99,,2013-08-26 19:22:00,
2013-08-26 12:42:00,70.0,55.0,-100.00,SE,135,12.0,14.0,59,-99.99,,,-99.99,,2013-08-26 19:42:00,
2013-08-26 12:52:00,70.0,55.0,-100.00,SE,135,12.0,14.0,59,-99.99,,,-99.99,,2013-08-26 19:52:00,
2013-08-26 13:11:00,70.0,55.0,-100.00,SE,135,12.0,14.0,59,-99.99,,,-99.99,,2013-08-26 20:11:00,
2013-08-26 13:21:00,71.0,55.0,-100.00,South,180,12.0,14.0,56,-99.99,,,-99.99,,2013-08-26 20:21:00,
2013-08-26 13:42:00,72.0,54.0,-100.00,South,180,11.0,13.0,54,-99.99,,,-99.99,,2013-08-26 20:42:00,
2013-08-26 13:52:00,72.0,52.0,-100.00,South,180,9.0,12.0,50,-99.99,,,-99.99,,2013-08-26 20:52:00,
2013-08-26 14:11:00,74.0,53.0,-100.00,SW,225,6.0,9.0,48,-99.99,,,-99.99,,2013-08-26 21:11:00,
2013-08-26 14:13:00,74.0,51.0,-100.00,South,180,4.0,6.0,43,-99.99,,,-99.99,,2013-08-26 21:13:00,
2013-08-26 14:22:00,74.0,53.0,-100.00,South,180,3.0,8.0,47,-99.99,,,-99.99,,2013-08-26 21:22:00,
2013-08-26 14:44:00,74.0,51.0,-100.00,South,180,4.0,6.0,43,-99.99,,,-99.99,,2013-08-26 21:44:00,
2013-08-26 14:54:00,74.0,51.0,-100.00,South,180,4.0,6.0,43,-99.99,,,-99.99,,2013-08-26 21:54:00,
2013-08-26 15:42:00,75.0,51.0,-100.00,South,180,7.0,9.0,43,-99.99,,,-99.99,,2013-08-26 22:42:00,
2013-08-26 15:53:00,75.0,50.0,-100.00,South,180,8.0,12.0,41,-99.99,,,-99.99,,2013-08-26 22:53:00,
2013-08-26 16:12:00,75.0,50.0,-100.00,South,180,8.0,12.0,41,-99.99,,,-99.99,,2013-08-26 23:12:00,
2013-08-26 16:21:00,76.0,49.0,-100.00,South,180,6.0,9.0,39,-99.99,,,-99.99,,2013-08-26 23:21:00,
2013-08-26 16:42:00,76.0,49.0,-100.00,South,180,6.0,9.0,39,-99.99,,,-99.99,,2013-08-26 23:42:00,
2013-08-26 16:52:00,76.0,49.0,-100.00,South,180,7.0,9.0,39,-99.99,,,-99.99,,2013-08-26 23:52:00,
2013-08-26 17:11:00,76.0,49.0,-100.00,South,180,7.0,9.0,39,-99.99,,,-99.99,,2013-08-27 00:11:00,
2013-08-26 17:21:00,76.0,51.0,-100.00,SW,225,1.0,2.0,41,-99.99,,,-99.99,,2013-08-27 00:21:00,
2013-08-26 17:42:00,76.0,52.0,-100.00,South,180,3.0,6.0,42,-99.99,,,-99.99,,2013-08-27 00:42:00,
2013-08-26 17:52:00,76.0,52.0,-100.00,South,180,3.0,6.0,42,-99.99,,,-99.99,,2013-08-27 00:52:00,
2013-08-26 18:12:00,74.0,51.0,-100.00,SW,225,4.0,8.0,43,-99.99,,,-99.99,,2013-08-27 01:12:00,
2013-08-26 18:21:00,74.0,51.0,-100.00,SW,225,4.0,8.0,43,-99.99,,,-99.99,,2013-08-27 01:21:00,
2013-08-26 18:42:00,71.0,51.0,-100.00,West,270,11.0,14.0,50,-99.99,,,-99.99,,2013-08-27 01:42:00,
2013-08-26 18:52:00,70.0,53.0,-100.00,West,270,9.0,12.0,54,-99.99,,,-99.99,,2013-08-27 01:52:00,
2013-08-26 19:12:00,70.0,53.0,-100.00,West,270,9.0,12.0,54,-99.99,,,-99.99,,2013-08-27 02:12:00,
2013-08-26 19:21:00,70.0,52.0,-100.00,West,270,5.0,8.0,54,-99.99,,,-99.99,,2013-08-27 02:21:00,
2013-08-26 19:42:00,70.0,53.0,-100.00,West,270,3.0,4.0,55,-99.99,,,-99.99,,2013-08-27 02:42:00,
2013-08-26 19:43:00,68.0,54.0,-100.00,West,270,7.0,9.0,59,-99.99,,,-99.99,,2013-08-27 02:43:00,
2013-08-26 19:52:00,69.0,53.0,-100.00,West,270,6.0,8.0,57,-99.99,,,-99.99,,2013-08-27 02:52:00,
2013-08-26 20:12:00,68.0,54.0,-100.00,West,270,7.0,9.0,59,-99.99,,,-99.99,,2013-08-27 03:12:00,
2013-08-26 20:22:00,68.0,54.0,-100.00,West,270,7.0,9.0,59,-99.99,,,-99.99,,2013-08-27 03:22:00,
2013-08-26 21:29:00,66.0,58.0,-100.00,SW,225,4.0,7.0,76,-99.99,,,-99.99,,2013-08-27 04:29:00,
2013-08-26 21:46:00,63.0,61.0,-100.00,SE,135,6.0,8.0,93,-99.99,,,-99.99,,2013-08-27 04:46:00,
2013-08-26 21:54:00,63.0,61.0,-100.00,SE,135,6.0,8.0,93,-99.99,,,-99.99,,2013-08-27 04:54:00,
2013-08-26 22:13:00,63.0,62.0,-100.00,SE,135,8.0,9.0,96,-99.99,,,-99.99,,2013-08-27 05:13:00,
2013-08-26 22:23:00,63.0,62.0,-100.00,SE,135,8.0,9.0,96,-99.99,,,-99.99,,2013-08-27 05:23:00,
2013-08-26 22:43:00,63.0,62.0,-100.00,SE,135,8.0,8.0,98,-99.99,,,-99.99,,2013-08-27 05:43:00,
2013-08-26 22:52:00,62.0,62.0,-100.00,SE,135,6.0,6.0,98,-99.99,,,-99.99,,2013-08-27 05:52:00,
2013-08-26 23:12:00,62.0,62.0,-100.00,SE,135,5.0,6.0,98,-99.99,,,-99.99,,2013-08-27 06:12:00,
2013-08-26 23:21:00,62.0,62.0,-100.00,SE,135,5.0,6.0,98,-99.99,,,-99.99,,2013-08-27 06:21:00,
2013-08-26 23:42:00,62.0,61.0,-100.00,East,90,4.0,4.0,98,-99.99,,,-99.99,,2013-08-27 06:42:00,
2013-08-26 23:52:00,62.0,61.0,-100.00,East,90,4.0,4.0,98,-99.99,,,-99.99,,2013-08-27 06:52:00,